| time (UTC) | temp C | wind direction | speed KPH | gust KPH | rain 1hr cm | rain 24hr cm | rain mn cm | humidity % | barometer mb |
| 20260506232049 | 7 | 0 | 0.0 | 0.0 | 0.00 | 0.84 | 0.00 | 96 | 1011.9 |
| 20260506231047 | 7 | 0 | 0.0 | 0.0 | 0.00 | 0.86 | 0.00 | 96 | 1011.9 |
| 20260506230021 | 7 | 0 | 0.0 | 0.0 | 0.00 | 0.89 | 0.00 | 97 | 1011.8 |
| 20260506225026 | 7 | 0 | 0.0 | 0.0 | 0.00 | 0.89 | 0.00 | 97 | 1011.8 |
| 20260506224022 | 7 | 0 | 0.0 | 0.0 | 0.00 | 0.89 | 0.00 | 97 | 1011.7 |
| 20260506223028 | 7 | 0 | 0.0 | 0.0 | 0.00 | 0.91 | 0.00 | 97 | 1011.6 |
| 20260506222022 | 7 | 0 | 0.0 | 0.0 | 0.00 | 0.91 | 0.00 | 97 | 1011.6 |
| 20260506221021 | 7 | 0 | 0.0 | 0.0 | 0.00 | 0.94 | 0.00 | 97 | 1011.5 |
| 20260506220028 | 6 | 0 | 0.0 | 0.0 | 0.00 | 0.97 | 0.00 | 97 | 1011.5 |
| 20260506214021 | 6 | 0 | 0.0 | 0.0 | 0.00 | 0.99 | 0.97 | 96 | 1011.4 |
| 20260506213024 | 6 | 0 | 0.0 | 0.0 | 0.00 | 0.99 | 0.97 | 96 | 1011.3 |
| 20260506212030 | 5 | 0 | 0.0 | 0.0 | 0.00 | 1.02 | 0.97 | 95 | 1011.3 |
| 20260506211026 | 6 | 0 | 0.0 | 0.0 | 0.00 | 1.04 | 0.97 | 94 | 1011.1 |
| 20260506210034 | 6 | 0 | 0.0 | 0.0 | 0.00 | 1.07 | 0.97 | 93 | 1011.0 |
| 20260506205025 | 6 | 0 | 0.0 | 0.0 | 0.00 | 1.09 | 0.97 | 92 | 1010.9 |
| 20260506204025 | 6 | 0 | 0.0 | 0.0 | 0.00 | 1.09 | 0.97 | 91 | 1010.8 |
| 20260506202049 | 7 | 0 | 0.0 | 0.0 | 0.00 | 1.12 | 0.97 | 89 | 1010.7 |
| 20260506201045 | 8 | 0 | 0.0 | 0.0 | 0.00 | 1.14 | 0.97 | 87 | 1010.7 |
| 20260506195029 | 8 | 0 | 0.0 | 0.0 | 0.00 | 1.17 | 0.97 | 85 | 1010.5 |
| 20260506194021 | 8 | 0 | 0.0 | 0.0 | 0.00 | 1.17 | 0.97 | 83 | 1010.3 |
| 20260506193022 | 9 | 0 | 0.0 | 0.0 | 0.00 | 1.19 | 0.97 | 82 | 1010.3 |
| 20260506192035 | 10 | 0 | 0.0 | 0.0 | 0.00 | 1.19 | 0.97 | 79 | 1010.1 |
| 20260506191022 | 10 | 0 | 0.0 | 0.0 | 0.00 | 1.22 | 0.97 | 78 | 1010.0 |
| 20260506190020 | 11 | 0 | 0.0 | 0.0 | 0.00 | 1.24 | 0.97 | 77 | 1009.7 |
| 20260506183022 | 11 | 0 | 0.0 | 0.0 | 0.00 | 1.27 | 0.97 | 80 | 1009.5 |
| 20260506182021 | 11 | 0 | 0.0 | 0.0 | 0.00 | 1.27 | 0.97 | 79 | 1009.3 |
| 20260506181021 | 12 | 0 | 0.0 | 0.0 | 0.00 | 1.30 | 0.97 | 78 | 1009.1 |
| 20260506180045 | 12 | 0 | 0.0 | 0.0 | 0.00 | 1.30 | 0.97 | 80 | 1009.0 |
| 20260506175044 | 12 | 0 | 0.0 | 0.0 | 0.00 | 1.32 | 0.97 | 84 | 1008.9 |
| 20260506174045 | 12 | 0 | 0.0 | 0.0 | 0.00 | 1.32 | 0.97 | 83 | 1008.7 |
| 20260506173027 | 12 | 0 | 0.0 | 0.0 | 0.00 | 1.35 | 0.97 | 81 | 1008.6 |
| 20260506172021 | 12 | 0 | 0.0 | 0.0 | 0.00 | 1.35 | 0.97 | 81 | 1008.6 |
| 20260506171047 | 12 | 0 | 0.0 | 0.0 | 0.00 | 1.35 | 0.97 | 81 | 1008.5 |
| 20260506165021 | 12 | 0 | 0.0 | 0.0 | 0.00 | 1.35 | 0.97 | 78 | 1008.4 |
| 20260506164047 | 12 | 0 | 0.0 | 0.0 | 0.00 | 1.35 | 0.97 | 78 | 1008.3 |
| 20260506163044 | 12 | 0 | 0.0 | 0.0 | 0.00 | 1.35 | 0.97 | 78 | 1008.3 |
| 20260506161021 | 12 | 0 | 0.0 | 0.0 | 0.00 | 1.35 | 0.97 | 78 | 1008.4 |
| 20260506160042 | 12 | 0 | 0.0 | 0.0 | 0.00 | 1.35 | 0.97 | 77 | 1008.3 |
| 20260506155021 | 12 | 0 | 0.0 | 0.0 | 0.00 | 1.35 | 0.97 | 75 | 1008.3 |
| 20260506154052 | 12 | 0 | 0.0 | 0.0 | 0.00 | 1.35 | 0.97 | 75 | 1008.3 |
| 20260506153021 | 12 | 0 | 0.0 | 0.0 | 0.00 | 1.35 | 0.97 | 76 | 1008.2 |
| 20260506152046 | 13 | 0 | 0.0 | 0.0 | 0.00 | 1.35 | 0.97 | 77 | 1008.1 |
| 20260506150044 | 13 | 0 | 0.0 | 0.0 | 0.00 | 1.35 | 0.97 | 79 | 1008.1 |
| 20260506145049 | 13 | 0 | 0.0 | 0.0 | 0.00 | 1.35 | 0.97 | 80 | 1008.0 |
| 20260506144046 | 13 | 0 | 0.0 | 0.0 | 0.00 | 1.35 | 0.97 | 82 | 1008.0 |
| 20260506143044 | 12 | 0 | 0.0 | 0.0 | 0.00 | 1.35 | 0.97 | 81 | 1008.1 |
| 20260506142022 | 12 | 0 | 0.0 | 0.0 | 0.00 | 1.35 | 0.97 | 81 | 1008.1 |
| 20260506141022 | 12 | 0 | 0.0 | 0.0 | 0.00 | 1.35 | 0.97 | 83 | 1008.2 |
| 20260506140050 | 12 | 0 | 0.0 | 0.0 | 0.00 | 1.35 | 0.97 | 83 | 1008.2 |
| 20260506135050 | 12 | 0 | 0.0 | 0.0 | 0.00 | 1.35 | 0.97 | 84 | 1008.2 |
| 20260506134022 | 12 | 0 | 0.0 | 0.0 | 0.00 | 1.35 | 0.97 | 85 | 1008.2 |
| 20260506133022 | 12 | 0 | 0.0 | 0.0 | 0.00 | 1.35 | 0.97 | 84 | 1008.2 |
| 20260506132042 | 12 | 0 | 0.0 | 0.0 | 0.00 | 1.35 | 0.97 | 86 | 1008.2 |
| 20260506131021 | 11 | 0 | 0.0 | 0.0 | 0.00 | 1.35 | 0.97 | 86 | 1008.2 |
| 20260506130022 | 11 | 0 | 0.0 | 0.0 | 0.00 | 1.35 | 0.97 | 85 | 1008.2 |
| 20260506124043 | 12 | 0 | 0.0 | 0.0 | 0.00 | 1.35 | 0.97 | 82 | 1008.0 |
| 20260506123046 | 12 | 0 | 0.0 | 0.0 | 0.00 | 1.35 | 0.97 | 85 | 1007.9 |
| 20260506122045 | 11 | 0 | 0.0 | 0.0 | 0.00 | 1.35 | 0.97 | 86 | 1007.9 |
| 20260506121041 | 12 | 0 | 0.0 | 0.0 | 0.00 | 1.35 | 0.97 | 84 | 1007.9 |
| 20260506114022 | 11 | 0 | 0.0 | 0.0 | 0.00 | 1.35 | 0.97 | 90 | 1007.9 |
| 20260506111046 | 10 | 0 | 0.0 | 0.0 | 0.00 | 1.35 | 0.97 | 91 | 1008.0 |
| 20260506110047 | 10 | 0 | 0.0 | 0.0 | 0.00 | 1.35 | 0.97 | 92 | 1008.0 |
| 20260506105023 | 10 | 0 | 0.0 | 0.0 | 0.00 | 1.35 | 0.97 | 93 | 1008.0 |
| 20260506104047 | 10 | 0 | 0.0 | 0.0 | 0.03 | 1.35 | 0.97 | 93 | 1008.1 |
| 20260506103045 | 10 | 0 | 0.0 | 0.0 | 0.03 | 1.35 | 0.97 | 94 | 1008.1 |
| 20260506102045 | 10 | 0 | 0.0 | 0.0 | 0.03 | 1.35 | 0.97 | 94 | 1008.0 |
| 20260506101022 | 10 | 0 | 0.0 | 0.0 | 0.05 | 1.35 | 0.97 | 95 | 1007.9 |
| 20260506100039 | 9 | 0 | 0.0 | 0.0 | 0.05 | 1.35 | 0.97 | 96 | 1007.8 |
| 20260506095046 | 9 | 0 | 0.0 | 0.0 | 0.08 | 1.35 | 0.97 | 96 | 1007.7 |
| 20260506094037 | 9 | 0 | 0.0 | 0.0 | 0.08 | 1.35 | 0.97 | 96 | 1007.7 |
| 20260506093042 | 9 | 0 | 0.0 | 0.0 | 0.05 | 1.32 | 0.94 | 96 | 1007.6 |
| 20260506092037 | 8 | 0 | 0.0 | 0.0 | 0.08 | 1.32 | 0.94 | 96 | 1007.5 |
| 20260506091046 | 8 | 0 | 0.0 | 0.0 | 0.08 | 1.32 | 0.94 | 97 | 1007.5 |
| 20260506090047 | 8 | 0 | 0.0 | 0.0 | 0.05 | 1.30 | 0.91 | 97 | 1007.4 |
| 20260506084028 | 8 | 0 | 0.0 | 0.0 | 0.03 | 1.27 | 0.89 | 97 | 1007.2 |
| 20260506083045 | 8 | 0 | 0.0 | 0.0 | 0.05 | 1.27 | 0.89 | 97 | 1007.1 |
| 20260506082046 | 8 | 0 | 0.0 | 0.0 | 0.05 | 1.27 | 0.89 | 97 | 1007.1 |
| 20260506081044 | 8 | 0 | 0.0 | 0.0 | 0.03 | 1.24 | 0.86 | 97 | 1007.0 |
| 20260506073038 | 8 | 0 | 0.0 | 0.0 | 0.05 | 1.27 | 0.86 | 97 | 1006.7 |
| 20260506072045 | 8 | 0 | 0.0 | 0.0 | 0.03 | 1.24 | 0.84 | 98 | 1006.7 |
| 20260506062043 | 7 | 0 | 0.0 | 0.0 | 0.08 | 1.22 | 0.81 | 98 | 1006.5 |
| 20260506061043 | 7 | 0 | 0.0 | 0.0 | 0.10 | 1.22 | 0.81 | 98 | 1006.6 |
| 20260506051047 | 7 | 0 | 0.0 | 0.0 | 0.15 | 1.14 | 0.74 | 97 | 1006.5 |
| 20260506045043 | 7 | 0 | 0.0 | 0.0 | 0.13 | 1.09 | 0.71 | 97 | 1006.4 |
| 20260506044043 | 7 | 0 | 0.0 | 0.0 | 0.10 | 1.09 | 0.69 | 97 | 1006.4 |
| 20260506043044 | 7 | 0 | 0.0 | 0.0 | 0.10 | 1.09 | 0.66 | 97 | 1006.4 |
| 20260506042044 | 7 | 0 | 0.0 | 0.0 | 0.08 | 1.09 | 0.64 | 97 | 1006.3 |
| 20260506041043 | 7 | 0 | 0.0 | 0.0 | 0.05 | 1.09 | 0.61 | 97 | 1006.3 |
| 20260506040045 | 8 | 0 | 0.0 | 0.0 | 0.03 | 1.07 | 0.58 | 97 | 1006.4 |
| 20260506035047 | 8 | 0 | 0.0 | 0.0 | 0.05 | 1.09 | 0.58 | 97 | 1006.4 |
| 20260506033044 | 8 | 0 | 0.0 | 0.0 | 0.08 | 1.27 | 0.58 | 97 | 1006.4 |
| 20260506032045 | 8 | 0 | 0.0 | 0.0 | 0.08 | 1.35 | 0.56 | 97 | 1006.4 |
| 20260506031045 | 8 | 0 | 0.0 | 0.0 | 0.10 | 1.47 | 0.56 | 97 | 1006.4 |
| 20260506030043 | 8 | 0 | 0.0 | 0.0 | 0.13 | 1.65 | 0.56 | 97 | 1006.4 |
| 20260506025044 | 8 | 0 | 0.0 | 0.0 | 0.15 | 1.70 | 0.56 | 97 | 1006.4 |
| 20260506024044 | 8 | 0 | 0.0 | 0.0 | 0.13 | 1.68 | 0.53 | 97 | 1006.5 |
| 20260506022047 | 8 | 0 | 0.0 | 0.0 | 0.13 | 1.65 | 0.51 | 96 | 1006.5 |
| 20260506021045 | 8 | 0 | 0.0 | 0.0 | 0.15 | 1.65 | 0.48 | 96 | 1006.5 |
| 20260506020045 | 8 | 0 | 0.0 | 0.0 | 0.13 | 1.63 | 0.46 | 96 | 1006.6 |
| 20260506015045 | 8 | 0 | 0.0 | 0.0 | 0.13 | 1.60 | 0.43 | 97 | 1006.6 |
| 20260506014045 | 8 | 0 | 0.0 | 0.0 | 0.13 | 1.57 | 0.43 | 97 | 1006.6 |
| 20260506013047 | 8 | 0 | 0.0 | 0.0 | 0.15 | 1.57 | 0.43 | 97 | 1006.6 |
| 20260506012045 | 8 | 0 | 0.0 | 0.0 | 0.15 | 1.55 | 0.41 | 97 | 1006.6 |
| 20260506011045 | 9 | 0 | 0.0 | 0.0 | 0.15 | 1.55 | 0.38 | 97 | 1006.6 |
| 20260506005046 | 9 | 0 | 0.0 | 0.0 | 0.15 | 1.50 | 0.33 | 97 | 1006.7 |
| 20260506004048 | 9 | 0 | 0.0 | 0.0 | 0.15 | 1.47 | 0.33 | 97 | 1006.8 |
| 20260506003044 | 9 | 0 | 0.0 | 0.0 | 0.15 | 1.45 | 0.30 | 97 | 1006.8 |
| 20260506002046 | 9 | 0 | 0.0 | 0.0 | 0.15 | 1.45 | 0.28 | 97 | 1006.9 |
| 20260506001044 | 9 | 0 | 0.0 | 0.0 | 0.15 | 1.42 | 0.25 | 97 | 1006.9 |
| 20260506000046 | 9 | 0 | 0.0 | 0.0 | 0.15 | 1.40 | 0.23 | 96 | 1007.0 |
| 20260505235047 | 9 | 0 | 0.0 | 0.0 | 0.15 | 1.37 | 0.23 | 96 | 1007.1 |